Theta_e
348 352 350 350 349 348 348 349 348 347 347 350 350 349 349 347 347 344 347 343 344 343 341 336 340 343 344 346 346 345 341 336 336 340 346 346 345 342 340 342 341 341 339
345 343 345 351 350 350 349 349 349 349 351 352 352 352 352 348 348 348 348 347 347 345 343 337 337 341 342 344 345 344 345 344 340 340 346 345 344 342 341 342 344 344 341
339 341 345 349 352 353 349 352 352 353 352 353 353 353 350 350 350 348 348 348 348 347 346 337 337 339 342 343 343 343 344 344 344 343 343 343 344 345 343 343 342 340 339
345 345 349 350 352 349 349 353 351 350 351 351 351 353 353 352 352 350 348 347 347 349 350 342 342 342 343 343 343 343 342 343 343 343 342 341 342 342 342 342 341 343 342
351 348 350 350 350 350 353 353 349 352 351 352 352 353 353 353 351 351 351 349 348 349 350 349 349 345 345 343 343 343 344 343 343 343 343 342 342 342 344 342 340 342 341
350 353 354 354 354 354 354 352 354 351 353 352 351 350 347 351 352 350 351 350 349 349 351 350 351 349 348 348 346 344 344 345 345 343 343 343 342 341 342 343 339 342 342
353 354 355 354 355 354 352 351 353 354 353 355 354 351 351 352 349 355 353 352 351 350 349 350 351 350 350 351 350 348 346 346 346 345 345 343 342 342 342 340 340 341 343
355 357 351 353 353 355 352 354 354 352 352 352 352 354 358 354 350 353 352 353 352 352 352 350 350 352 350 351 353 352 349 348 347 347 346 345 344 342 344 343 342 344 344
355 357 355 352 350 354 353 353 353 353 353 353 353 353 355 357 353 350 353 353 353 352 352 352 353 351 351 353 355 354 352 353 352 348 347 347 346 345 344 345 346 346 345
355 354 355 356 354 352 354 354 355 353 354 354 353 353 351 354 355 353 350 352 352 353 345 346 348 352 354 354 355 356 356 356 355 353 350 348 347 345 345 345 345 345 345
355 353 356 355 354 355 353 355 352 352 353 353 353 353 354 352 352 354 354 352 346 342 347 340 336 349 354 355 356 356 355 356 355 354 350 348 347 346 345 345 344 344 344
356 357 354 355 355 354 354 355 354 354 354 355 355 354 353 353 352 354 358 352 352 350 350 344 345 349 351 354 355 355 355 356 355 355 354 349 347 346 346 346 346 345 345
354 356 354 355 356 355 354 353 355 355 354 356 357 357 357 354 353 353 355 355 354 353 351 348 352 348 342 349 350 353 352 351 351 351 353 352 348 346 345 345 347 347 346
353 352 351 355 355 354 355 355 355 355 354 354 356 356 356 356 355 353 354 355 355 352 351 351 350 344 345 344 349 348 354 353 350 350 349 348 348 346 345 344 347 347 347
345 346 346 347 348 347 349 351 354 354 353 352 351 353 355 354 353 354 355 353 354 356 354 349 349 351 349 346 343 339 350 351 351 352 351 348 344 344 347 346 348 346 345
337 339 339 340 340 340 343 345 349 351 350 351 353 354 353 352 352 353 354 353 352 353 353 351 352 353 350 347 337 339 352 352 349 350 352 349 346 344 347 347 343 344 344
333 334 334 334 337 337 339 340 341 342 344 348 351 352 353 353 354 352 349 353 353 354 354 353 353 353 353 352 352 351 349 349 354 352 350 346 343 345 346 347 342 341 344
334 334 333 333 334 335 335 336 338 340 341 341 346 348 350 352 353 353 353 353 352 352 352 353 353 354 352 351 351 350 351 352 354 352 354 351 347 344 344 344 345 344 345
334 335 334 334 334 334 334 334 334 337 340 341 340 340 343 348 350 351 352 353 353 351 352 352 352 352 351 350 349 351 353 351 351 353 353 352 349 349 349 348 346 344 343
334 334 334 334 334 335 334 334 333 333 332 333 333 334 338 340 343 348 349 350 351 352 352 350 351 352 353 353 353 352 352 353 352 353 354 353 351 349 348 348 347 347 344
333 334 334 333 333 334 331 330 328 330 331 332 332 332 334 337 340 341 345 347 348 348 350 352 353 353 353 353 352 350 351 351 351 352 351 350 335 350 350 350 348 347 345
330 331 331 332 330 329 330 329 327 327 330 332 333 333 333 333 337 340 343 346 347 347 347 348 350 351 351 351 349 349 350 352 354 353 353 350 350 348 343 336 348 349 346
328 329 329 329 329 331 329 327 327 327 331 333 335 335 336 333 334 340 340 341 343 344 345 346 346 347 348 347 347 348 351 350 351 351 349 351 350 350 337 331 334 341 349
328 330 332 332 331 331 329 325 324 328 331 333 335 334 336 336 337 339 338 337 338 341 341 342 342 342 343 343 342 343 345 344 344 346 345 350 349 349 349 348 349 350 351
328 330 331 331 332 328 326 325 322 327 330 330 332 335 336 336 336 335 335 337 339 339 340 341 341 342 339 338 336 333 334 338 342 343 342 347 348 348 348 347 348 349 349
326 329 329 329 331 330 328 325 322 323 325 325 329 333 334 334 331 331 331 335 338 338 338 341 340 338 335 337 338 338 339 343 345 345 345 343 344 345 347 347 349 349 349
Wind_Speed
3 2 1 3 5 5 6 8 9 10 12 11 11 12 14 12 12 12 6 16 12 15 13 17 16 18 19 17 16 16 16 16 16 15 15 14 12 11 11 10 10 10 10
3 1 2 1 4 6 6 7 8 9 10 11 12 13 16 15 14 11 10 8 9 17 13 17 18 19 20 20 19 19 19 18 17 17 17 17 16 14 15 14 13 13 12
0 4 3 1 3 3 3 3 5 7 9 10 11 11 13 16 18 15 19 15 13 17 16 16 18 20 19 19 20 19 21 20 20 21 20 20 19 17 16 15 16 14 14
7 5 5 4 5 5 2 3 3 5 7 9 9 14 14 17 15 20 21 17 19 16 18 18 19 20 19 19 19 20 20 21 21 22 21 21 20 20 19 17 16 16 15
5 5 6 7 8 6 4 2 3 5 7 7 10 8 10 14 14 14 21 20 18 22 21 21 21 21 18 19 19 20 20 21 21 22 22 21 22 22 22 20 18 17 16
9 10 5 9 11 8 6 6 4 6 10 8 9 9 13 14 17 17 17 14 18 16 21 17 20 24 21 20 21 21 21 20 20 21 23 22 22 23 24 23 20 19 18
5 7 9 11 12 6 9 7 8 15 13 13 7 10 14 13 15 20 17 18 17 18 19 19 17 23 19 21 21 21 22 22 22 21 21 22 23 23 24 25 23 22 20
7 7 9 9 12 13 5 9 10 10 12 14 10 7 3 1 6 17 19 20 21 17 17 20 18 22 21 22 22 25 23 23 24 24 23 22 22 22 23 23 23 22 21
6 7 9 12 15 9 10 10 12 8 15 19 11 9 3 2 9 7 14 21 22 20 15 12 17 26 27 23 20 18 22 22 23 25 25 24 23 22 22 23 24 23 22
7 6 10 12 12 11 12 13 15 14 11 15 15 7 5 7 1 3 9 10 7 9 7 15 23 25 22 27 23 21 19 21 20 21 23 25 24 24 23 22 23 23 23
10 8 13 13 13 13 12 11 16 12 14 15 15 15 13 10 6 4 4 5 5 5 7 19 14 21 26 29 26 24 23 21 19 19 20 23 24 24 22 22 22 22 22
11 10 6 10 10 12 12 13 14 14 13 14 16 18 17 7 7 6 4 7 14 11 14 11 26 27 20 28 22 16 13 17 17 18 21 23 24 24 24 24 23 22 22
11 7 6 8 11 10 11 12 14 14 15 15 16 17 15 18 20 16 11 8 8 14 7 11 17 18 35 25 13 13 16 14 14 17 19 23 25 25 24 24 25 23 24
10 12 12 11 10 11 11 11 13 14 15 15 17 17 20 18 18 19 16 11 4 5 14 14 4 12 11 15 11 23 9 12 12 14 17 22 26 27 28 27 26 25 25
10 12 13 12 14 13 13 13 12 15 16 17 19 18 19 23 23 23 21 23 12 3 3 9 10 3 6 13 16 10 18 11 9 16 14 19 24 28 27 27 27 25 25
10 11 12 12 13 13 14 15 13 15 15 16 16 17 18 21 21 22 21 17 18 14 5 10 12 15 10 9 13 14 11 14 16 20 19 20 22 24 26 27 29 25 23
10 10 12 13 13 13 13 14 15 17 18 17 18 16 16 16 18 22 24 18 18 18 13 20 17 14 12 12 14 15 18 22 24 24 26 27 24 23 25 28 31 31 26
9 10 10 11 12 13 14 15 16 16 18 19 19 19 18 16 16 16 18 20 20 23 22 18 18 19 22 16 21 23 24 21 23 26 28 24 27 26 23 25 30 31 30
9 8 9 9 10 11 12 13 14 14 13 16 16 19 21 20 16 17 16 18 19 21 20 19 22 18 21 19 18 21 24 28 25 20 23 21 17 25 26 24 25 30 31
8 9 10 10 10 12 7 6 12 15 18 18 20 19 22 21 20 20 17 16 18 16 18 19 22 21 18 18 20 19 22 24 27 21 19 17 19 23 26 27 30 29 33
9 10 10 10 9 10 12 18 19 16 16 17 19 20 19 22 25 20 21 18 16 14 14 14 15 17 19 18 16 15 18 22 25 21 19 13 25 24 18 21 30 33 32
10 11 11 12 12 11 14 16 18 19 17 17 18 18 19 21 20 16 18 17 17 17 16 16 14 12 16 16 18 17 16 16 5 7 13 10 12 21 19 28 20 31 38
10 10 10 10 11 9 13 17 19 17 13 18 18 18 16 15 22 18 16 15 15 16 18 21 19 18 16 16 15 17 15 17 15 20 14 20 16 19 14 16 11 39 40
12 11 12 8 9 8 14 18 22 14 15 17 17 17 14 15 13 15 18 22 19 17 17 15 16 20 17 16 14 14 15 18 20 21 15 13 18 19 18 25 26 24 28
12 15 12 12 6 10 13 16 23 17 17 19 17 14 15 13 14 17 16 15 17 15 12 13 11 12 13 14 15 15 15 12 12 15 14 17 17 15 19 27 24 22 21
10 11 12 10 9 7 7 12 20 16 17 19 18 17 15 17 20 15 13 13 14 10 10 9 8 11 17 19 19 17 12 13 13 7 6 12 13 11 7 10 11 9 8
Wind_Direction
130 125 201 201 171 230 209 226 230 235 254 253 259 260 258 251 276 267 181 174 268 249 235 220 221 218 218 224 224 227 226 225 225 224 223 229 231 234 236 234 236 236 236
125 116 103 13 231 245 222 253 245 237 248 243 249 249 251 255 259 247 246 248 236 226 240 225 225 221 220 225 227 228 229 233 228 231 230 231 235 232 234 238 239 243 242
47 182 254 189 219 182 234 240 251 236 253 251 247 247 242 247 255 246 239 245 244 241 241 224 220 221 226 228 230 232 231 230 226 227 229 232 236 236 237 237 238 239 242
237 245 244 225 250 251 221 271 267 251 250 258 254 250 241 241 262 260 231 225 233 239 240 229 226 224 227 231 232 233 232 231 229 229 232 235 235 235 236 240 243 244 243
208 210 252 241 230 238 250 259 230 254 266 260 249 268 257 259 253 252 238 233 225 226 231 234 234 222 224 230 231 233 234 233 231 231 232 234 235 236 235 240 245 245 244
243 221 255 259 241 230 211 269 258 264 268 265 264 270 271 264 257 250 251 245 235 243 232 231 230 228 228 234 235 235 235 234 233 234 234 235 235 233 235 240 242 244 247
249 218 251 252 241 232 230 249 252 264 264 259 248 288 280 244 257 250 236 229 237 243 244 247 242 228 237 245 245 241 238 237 235 235 234 235 234 235 235 237 240 242 245
221 246 280 277 257 251 222 246 260 271 284 271 219 244 309 36 251 246 226 229 234 230 239 245 257 237 245 252 246 242 236 238 237 237 237 236 236 236 236 236 237 240 242
220 231 255 282 289 298 285 265 250 260 280 300 281 327 320 329 336 310 225 233 232 218 242 274 242 244 242 236 248 243 235 235 235 236 237 237 237 237 236 238 239 240 242
195 239 259 264 271 270 268 271 264 262 261 285 299 314 346 331 101 341 312 307 219 187 256 270 284 281 239 236 240 235 234 231 238 239 237 237 237 238 238 237 239 240 242
270 250 265 283 272 277 282 276 276 272 264 269 281 292 309 295 277 208 277 287 64 205 314 282 244 255 239 229 230 229 233 234 232 238 239 237 236 236 237 239 239 240 242
347 284 292 303 294 274 276 277 272 267 265 262 260 266 277 260 257 243 236 285 288 229 269 254 243 277 316 237 234 223 226 228 241 246 246 239 235 235 237 239 240 240 240
347 9 341 350 349 326 301 289 283 276 270 265 266 265 264 255 257 258 273 270 286 307 277 264 228 258 274 10 16 262 227 235 243 245 244 241 238 235 236 241 241 241 243
6 358 2 356 336 336 330 308 300 295 290 278 274 266 262 262 253 249 248 257 285 273 299 293 296 214 280 292 338 333 269 236 254 253 245 242 239 237 239 244 238 237 241
356 343 338 337 337 335 325 323 310 301 300 297 283 277 270 268 265 263 265 251 223 263 280 274 275 326 298 216 183 314 287 266 264 257 253 242 241 239 242 234 234 234 238
341 337 333 328 325 324 326 325 317 314 311 306 299 292 285 273 272 268 269 258 248 226 255 246 278 293 274 275 201 248 256 273 266 264 261 256 242 241 237 232 229 234 243
333 331 328 327 327 324 323 320 316 313 311 312 313 303 298 292 281 273 274 267 251 240 239 269 265 274 278 281 275 273 273 264 262 262 258 250 249 246 240 237 236 240 246
343 336 334 329 326 324 321 319 318 315 313 306 305 312 310 299 290 283 281 270 263 257 247 259 265 260 269 266 267 268 267 258 259 260 264 260 255 252 248 247 244 244 247
342 338 339 335 329 322 315 311 310 311 320 322 321 321 320 320 303 294 286 283 278 265 261 257 268 263 265 269 266 267 266 272 270 262 277 269 256 245 250 253 251 248 246
344 345 342 337 341 337 29 3 335 322 315 310 308 304 307 308 306 306 290 290 291 285 273 260 262 266 266 266 264 266 273 273 269 271 272 277 272 262 253 254 258 256 248
348 347 345 347 352 353 16 352 343 332 319 313 306 304 300 300 303 304 289 286 283 289 293 289 275 274 272 273 266 277 276 278 277 269 273 287 241 254 260 272 266 255 253
353 353 351 347 343 338 330 339 336 326 321 308 302 303 303 303 296 314 333 291 284 285 279 272 276 271 282 289 291 285 280 281 295 288 264 236 262 240 287 291 268 281 259
349 345 344 338 342 335 337 336 334 328 318 306 307 302 294 300 306 317 321 324 308 295 282 278 268 268 278 285 285 285 283 277 264 274 284 284 271 262 238 231 241 277 257
342 334 339 355 3 347 349 351 355 351 330 327 330 340 311 303 305 322 320 313 306 305 291 281 280 280 283 284 278 275 282 287 291 290 281 260 269 264 261 255 254 252 244
340 338 353 356 5 343 345 350 3 360 351 347 341 343 0 350 338 334 328 313 304 303 298 300 288 269 278 285 277 271 267 269 272 278 287 254 274 289 290 289 288 282 267
331 326 327 330 323 307 329 353 1 5 355 346 339 347 357 353 346 344 338 343 322 329 321 324 298 278 279 283 279 268 276 323 325 334 35 5 330 334 312 293 294 282 285